カタログに戻る

FENGYUN 1C DEB

運用中PO
NORAD 30279·DEBRIS·🇨🇳 China

打ち上げ May 10, 1999 から Taiyuan Satellite Launch Center

Loading…

次のパス (今後24時間)

TLE

最新Source: Space-Track

元期: Sep 14, 2026, 15:04 UTC

1 30279U 99025YQ  26257.62779074  .00001594  00000-0  56134-3 0  9991
2 30279  99.1731 208.9864 0217332   3.6591 172.5988 14.24043178 15361

AllMySatでFENGYUN 1C DEBをリアルタイム追跡

Download on the App Store